New York Downtown Manhattan/w, NY

4:00 PM EST on November 11, 2019 (GMT -0500)
New York Downtown Manhattan/w

Weather History for KJRB - June, 2019

Change the Weather History Date:

Saturday, June 8, 2019

  Actual Average (KEWR) Record (KEWR)
Temperature  
Mean Temperature 72 °F -  
Max Temperature 82 °F 81 °F 99 °F (2011)
Min Temperature 62 °F 61 °F 44 °F (1932)
Cooling Degree Days 6    
Growing Degree Days 22 (Base 50)    
Moisture  
Dew Point 54 °F    
Average Humidity 59    
Maximum Humidity 93    
Minimum Humidity 36    
Precipitation  
Precipitation 0.02 in - - ()
Sea Level Pressure  
Sea Level Pressure 30.13 in    
Wind  
Wind Speed 6 mph ()    
Max Wind Speed 17 mph    
Max Gust Speed 31 mph    
Visibility 9.7 miles    
Events      
Averages and records for this station are not official NWS values.
T = Trace of Precipitation, MM = Missing Value Source: Averaged Metar Reports

Daily Weather History Graph

Daily Weather History Graph

Search for Another Location

Airport or City:

Astronomy

Jun. 08, 2019 Rise Set
Actual Time 5:24 AM EDT 8:25 PM EDT
Civil Twilight 4:51 AM EDT 8:58 PM EDT
Nautical Twilight 4:09 AM EDT 9:40 PM EDT
Astronomical Twilight 3:20 AM EDT 10:29 PM EDT
Moon 10:50 AM EDT (6/8) 12:24 AM EDT (6/8)
Length of Visible Light 16h 06m
Length of Day
15h 00m
Waxing Crescent, 32% of the Moon is Illuminated
Jun 8
Waxing Crescent
Jun 10
First Quarter
Jun 17
Full
Jun 25
Last Quarter
Jul 2
New

Hourly Weather History & Observations

Time (EDT) Temp. Heat Index Dew Point Humidity Pressure Visibility Wind Dir Wind Speed Gust Speed Precip Events Conditions
12:56 AM 63.0 °F - 61.0 °F 93% 30.01 in 10.0 mi WSW 4.6 mph - N/A   Clear
1:56 AM 62.1 °F - 60.1 °F 93% 30.02 in 9.0 mi WSW 4.6 mph - N/A   Clear
2:56 AM 62.1 °F - 60.1 °F 93% 30.03 in 9.0 mi Calm Calm - N/A   Clear
3:56 AM 62.1 °F - 60.1 °F 93% 30.03 in 9.0 mi Calm Calm - N/A   Clear
4:56 AM 63.0 °F - 61.0 °F 93% 30.05 in 8.0 mi Calm Calm - N/A   Clear
5:56 AM 64.0 °F - 62.1 °F 93% 30.08 in 8.0 mi Calm Calm - N/A   Clear
6:56 AM 68.0 °F - 54.0 °F 61% 30.10 in 10.0 mi NNE 12.7 mph 20.7 mph N/A   Clear
7:56 AM 70.0 °F - 52.0 °F 53% 30.10 in 10.0 mi NE 15.0 mph - N/A   Clear
8:56 AM 71.1 °F - 51.1 °F 49% 30.12 in 10.0 mi NNE 17.3 mph - N/A   Clear
9:56 AM 75.0 °F - 53.1 °F 46% 30.13 in 10.0 mi NNE 13.8 mph 24.2 mph N/A   Clear
10:56 AM 77.0 °F - 55.0 °F 47% 30.14 in 10.0 mi NNE 13.8 mph - 0.01 in   Clear
11:56 AM 77.0 °F - 55.0 °F 47% 30.16 in 10.0 mi NE 13.8 mph 19.6 mph N/A   Clear
12:56 PM 80.1 °F - 51.1 °F 36% 30.16 in 10.0 mi NE 12.7 mph 24.2 mph N/A   Clear
1:56 PM 81.0 °F - 52.0 °F 36% 30.15 in 10.0 mi East 9.2 mph 20.7 mph N/A   Clear
2:56 PM 80.1 °F 80.0 °F 54.0 °F 40% 30.16 in 9.0 mi Variable 6.9 mph - N/A   Clear
3:56 PM 78.1 °F - 55.0 °F 45% 30.17 in 10.0 mi SSE 11.5 mph 31.1 mph 0.01 in   Clear
4:56 PM 75.9 °F - 51.1 °F 42% 30.17 in 10.0 mi East 5.8 mph - N/A   Clear
5:56 PM 75.9 °F - 46.9 °F 36% 30.18 in 10.0 mi ESE 10.4 mph - N/A   Clear
6:56 PM 73.0 °F - 46.9 °F 39% 30.19 in 10.0 mi East 8.1 mph - N/A   Clear
7:56 PM 70.0 °F - 46.9 °F 44% 30.21 in 10.0 mi SE 8.1 mph - N/A   Clear
8:56 PM 68.0 °F - 48.9 °F 50% 30.23 in 10.0 mi SSE 8.1 mph - N/A   Clear
10:56 PM 64.9 °F - 52.0 °F 63% 30.25 in 10.0 mi NE 9.2 mph - N/A   Clear
11:56 PM 64.9 °F - 51.1 °F 61% 30.25 in 10.0 mi NNE 10.4 mph - N/A   Clear